Weather History for Dubois Muni, Dubois, WY, WY

Change the Weather History Date:

Wednesday, December 25, 2013

  Actual Average (KJAC) Record (KJAC)
Temperature  
Mean Temperature 26 °F -  
Max Temperature 35 °F 23 °F 40 °F (1971)
Min Temperature 17 °F -2 °F -23 °F (1987)
Degree Days  
Heating Degree Days 39    
Moisture  
Dew Point 3 °F    
Average Humidity 40    
Maximum Humidity 63    
Minimum Humidity 24    
Precipitation  
Precipitation 0.00 in - - ()
Sea Level Pressure  
Sea Level Pressure 30.29 in    
Wind  
Wind Speed 17 mph (NW)    
Max Wind Speed 31 mph    
Max Gust Speed 39 mph    
Visibility 10 miles    
Events      
Averages and records for this station are not official NWS values.
T = Trace of Precipitation, MM = Missing Value Source: NWS Daily Summary

Daily Weather History Graph

Daily Weather History Graph

Search for Another Location

Airport:

Trip Planner

Search our weather history database for the weather conditions in past years. The results will help you decide how hot, cold, wet, or windy it might be!

Date:

Astronomy

Dec. 25, 2013 Rise Set
Actual Time 7:50 AM MST 4:47 PM MST
Civil Twilight 7:17 AM MST 5:20 PM MST
Nautical Twilight 6:41 AM MST 5:56 PM MST
Astronomical Twilight 6:06 AM MST 6:31 PM MST
Moon 12:11 AM MST (12/25) 12:02 PM MST (12/25)
Length of Visible Light 10h 02m
Length of Day
8h 57m
Waning Gibbous, 48% of the Moon is Illuminated
Dec 25
Waning Gibbous
Jan 1
New
Jan 7
First Quarter
Jan 15
Full
Jan 23
Last Quarter

Hourly Weather History & Observations

Time (MST) Temp. Windchill Dew Point Humidity Pressure Visibility Wind Dir Wind Speed Gust Speed Precip Events Conditions
12:15 AM 17.6 °F 5.0 °F 6.8 °F 63% 30.31 in 10.0 mi NNW 11.5 mph - N/A   Clear
12:35 AM 17.6 °F 3.7 °F 6.8 °F 63% 30.30 in 10.0 mi NW 13.8 mph - N/A   Clear
12:55 AM 17.6 °F 5.7 °F 6.8 °F 63% 30.30 in 10.0 mi NW 10.4 mph - N/A   Clear
1:15 AM 17.6 °F 4.3 °F 6.8 °F 63% 30.30 in 10.0 mi NW 12.7 mph - N/A   Clear
1:35 AM 17.6 °F 6.4 °F 6.8 °F 63% 30.30 in 10.0 mi NW 9.2 mph - N/A   Clear
1:55 AM 17.6 °F 3.2 °F 6.8 °F 63% 30.30 in 10.0 mi NW 15.0 mph - N/A   Clear
2:15 AM 17.6 °F 6.4 °F 6.8 °F 63% 30.31 in 10.0 mi NW 9.2 mph - N/A   Clear
2:35 AM 17.6 °F 3.7 °F 5.0 °F 58% 30.32 in 10.0 mi NW 13.8 mph - N/A   Clear
2:55 AM 17.6 °F 3.2 °F 5.0 °F 58% 30.32 in 10.0 mi NW 15.0 mph 20.7 mph N/A   Clear
3:15 AM 17.6 °F 3.2 °F 5.0 °F 58% 30.32 in 10.0 mi NW 15.0 mph - N/A   Clear
3:35 AM 17.6 °F 3.2 °F 5.0 °F 58% 30.32 in 10.0 mi NW 15.0 mph - N/A   Clear
3:55 AM 19.4 °F 4.5 °F 5.0 °F 54% 30.32 in 10.0 mi NW 17.3 mph - N/A   Clear
4:15 AM 17.6 °F 3.2 °F 5.0 °F 58% 30.30 in 10.0 mi NW 15.0 mph - N/A   Clear
4:35 AM 19.4 °F 4.5 °F 5.0 °F 54% 30.30 in 10.0 mi NW 17.3 mph 24.2 mph N/A   Clear
4:55 AM 17.6 °F 0.9 °F 5.0 °F 58% 30.30 in 10.0 mi NW 20.7 mph - N/A   Clear
5:15 AM 19.4 °F 4.1 °F 5.0 °F 54% 30.30 in 10.0 mi NW 18.4 mph - N/A   Clear
5:35 AM 19.4 °F 3.6 °F 3.2 °F 49% 30.30 in 10.0 mi NW 19.6 mph - N/A   Clear
5:55 AM 19.4 °F 2.8 °F 3.2 °F 49% 30.30 in 10.0 mi NW 21.9 mph 26.5 mph N/A   Clear
6:10 AM 19.4 °F 4.5 °F 3.2 °F 49% 30.30 in 10.0 mi NW 17.3 mph 25.3 mph N/A   Clear
6:35 AM 23.0 °F 6.6 °F 1.4 °F 39% 30.30 in 10.0 mi WNW 25.3 mph 34.5 mph N/A   Clear
6:55 AM 23.0 °F 6.9 °F 1.4 °F 39% 30.31 in 10.0 mi West 24.2 mph 34.5 mph N/A   Clear
7:15 AM 24.8 °F 10.7 °F -0.4 °F 34% 30.31 in 10.0 mi WNW 19.6 mph 29.9 mph N/A   Clear
7:35 AM 23.0 °F 8.7 °F -0.4 °F 36% 30.32 in 10.0 mi NW 18.4 mph 26.5 mph N/A   Clear
7:55 AM 21.2 °F 8.3 °F 1.4 °F 42% 30.31 in 10.0 mi WNW 13.8 mph - N/A   Clear
8:15 AM 23.0 °F 9.2 °F 1.4 °F 39% 30.31 in 10.0 mi NW 17.3 mph 21.9 mph N/A   Clear
8:35 AM 24.8 °F 10.3 °F -0.4 °F 34% 30.30 in 10.0 mi WNW 20.7 mph 29.9 mph N/A   Clear
8:55 AM 28.4 °F 15.1 °F -0.4 °F 29% 30.31 in 10.0 mi WNW 20.7 mph 26.5 mph N/A   Clear
9:10 AM 28.4 °F 14.4 °F -0.4 °F 29% 30.32 in 10.0 mi WNW 23.0 mph 28.8 mph N/A   Clear
9:35 AM 28.4 °F 15.8 °F 1.4 °F 31% 30.31 in 10.0 mi NW 18.4 mph 24.2 mph N/A   Clear
9:55 AM 32.0 °F 19.2 °F -0.4 °F 25% 30.31 in 10.0 mi WNW 23.0 mph 28.8 mph N/A   Clear
10:15 AM 32.0 °F 17.4 °F -0.4 °F 25% 30.31 in 10.0 mi WNW 31.1 mph 39.1 mph N/A   Clear
10:35 AM 32.0 °F 18.6 °F 1.4 °F 27% 30.31 in 10.0 mi WNW 25.3 mph 35.7 mph N/A   Clear
10:55 AM 33.8 °F 20.5 °F 1.4 °F 25% 30.31 in 10.0 mi West 27.6 mph 34.5 mph N/A   Clear
11:15 AM 33.8 °F 20.1 °F 1.4 °F 25% 30.32 in 10.0 mi West 29.9 mph 35.7 mph N/A   Clear
11:35 AM 33.8 °F 21.0 °F 1.4 °F 25% 30.31 in 10.0 mi West 25.3 mph 34.5 mph N/A   Clear
11:50 AM 33.8 °F 21.0 °F 1.4 °F 25% 30.31 in 10.0 mi West 25.3 mph 29.9 mph N/A   Clear
12:15 PM 33.8 °F 23.2 °F 3.2 °F 28% 30.31 in 10.0 mi NW 17.3 mph 27.6 mph N/A   Clear
12:35 PM 33.8 °F 22.5 °F 1.4 °F 25% 30.31 in 10.0 mi NNW 19.6 mph 27.6 mph N/A   Clear
12:55 PM 33.8 °F 22.8 °F 1.4 °F 25% 30.30 in 10.0 mi NNW 18.4 mph 26.5 mph N/A   Clear
1:15 PM 33.8 °F 23.5 °F 3.2 °F 28% 30.30 in 10.0 mi NNW 16.1 mph 26.5 mph N/A   Clear
1:35 PM 33.8 °F 23.5 °F 3.2 °F 28% 30.30 in 10.0 mi NW 16.1 mph 25.3 mph N/A   Clear
1:55 PM 33.8 °F 23.5 °F 1.4 °F 25% 30.29 in 10.0 mi NNW 16.1 mph 23.0 mph N/A   Clear
2:15 PM 35.6 °F 26.6 °F 1.4 °F 24% 30.30 in 10.0 mi NW 13.8 mph 25.3 mph N/A   Clear
2:35 PM 33.8 °F 24.8 °F 1.4 °F 25% 30.29 in 10.0 mi NW 12.7 mph 23.0 mph N/A   Clear
2:55 PM 33.8 °F 23.9 °F 1.4 °F 25% 30.29 in 10.0 mi NNW 15.0 mph 20.7 mph N/A   Clear
3:15 PM 33.8 °F 25.8 °F 1.4 °F 25% 30.30 in 10.0 mi NW 10.4 mph - N/A   Clear
3:35 PM 33.8 °F 27.0 °F 1.4 °F 25% 30.30 in 10.0 mi NW 8.1 mph 17.3 mph N/A   Clear
3:55 PM 30.2 °F 22.6 °F 1.4 °F 29% 30.30 in 10.0 mi NNW 8.1 mph - N/A   Clear
4:15 PM 28.4 °F 18.5 °F 3.2 °F 34% 30.30 in 10.0 mi NNW 11.5 mph - N/A   Clear
4:35 PM 28.4 °F 17.0 °F 1.4 °F 31% 30.29 in 10.0 mi NNW 15.0 mph 21.9 mph N/A   Clear
4:55 PM 28.4 °F 16.6 °F 3.2 °F 34% 30.29 in 10.0 mi NNW 16.1 mph 26.5 mph N/A   Clear
5:15 PM 26.6 °F 13.1 °F 6.8 °F 43% 30.29 in 10.0 mi NNW 19.6 mph 26.5 mph N/A   Clear
5:35 PM 26.6 °F 13.1 °F 6.8 °F 43% 30.29 in 10.0 mi NNW 19.6 mph 26.5 mph N/A   Clear
5:55 PM 26.6 °F 13.4 °F 6.8 °F 43% 30.28 in 10.0 mi NW 18.4 mph 26.5 mph N/A   Clear
6:15 PM 24.8 °F 11.5 °F 6.8 °F 46% 30.28 in 10.0 mi NW 17.3 mph 28.8 mph N/A   Clear
6:35 PM 23.0 °F 8.0 °F 5.0 °F 46% 30.27 in 10.0 mi NW 20.7 mph 27.6 mph N/A   Clear
6:55 PM 23.0 °F 8.0 °F 5.0 °F 46% 30.27 in 10.0 mi NW 20.7 mph - N/A   Clear
7:15 PM 23.0 °F 8.7 °F 3.2 °F 43% 30.27 in 10.0 mi NNW 18.4 mph 28.8 mph N/A   Clear
7:35 PM 23.0 °F 8.7 °F 3.2 °F 43% 30.27 in 10.0 mi NNW 18.4 mph 26.5 mph N/A   Clear
7:55 PM 26.6 °F 13.8 °F 1.4 °F 34% 30.27 in 10.0 mi NNW 17.3 mph 25.3 mph N/A   Clear
8:15 PM 26.6 °F 13.4 °F 1.4 °F 34% 30.27 in 10.0 mi North 18.4 mph 29.9 mph N/A   Clear
8:35 PM 26.6 °F 12.0 °F 1.4 °F 34% 30.26 in 10.0 mi North 23.0 mph 29.9 mph N/A   Clear
8:55 PM 24.8 °F 10.0 °F 3.2 °F 40% 30.27 in 10.0 mi NNW 21.9 mph 28.8 mph N/A   Clear
9:15 PM 26.6 °F 14.7 °F 1.4 °F 34% 30.28 in 10.0 mi North 15.0 mph 24.2 mph N/A   Clear
9:35 PM 26.6 °F 12.7 °F 1.4 °F 34% 30.29 in 10.0 mi NNW 20.7 mph 26.5 mph N/A   Clear
9:55 PM 23.0 °F 9.6 °F 3.2 °F 43% 30.29 in 10.0 mi NNW 16.1 mph 21.9 mph N/A   Clear
10:15 PM 23.0 °F 9.2 °F 3.2 °F 43% 30.27 in 10.0 mi NNW 17.3 mph 21.9 mph N/A   Clear
10:35 PM 24.8 °F 10.3 °F 3.2 °F 40% 30.24 in 10.0 mi NNW 20.7 mph - N/A   Clear
10:55 PM 26.6 °F 13.1 °F 3.2 °F 37% 30.25 in 10.0 mi NW 19.6 mph 27.6 mph N/A   Clear
11:15 PM 24.8 °F 9.0 °F 3.2 °F 40% 30.26 in 10.0 mi NNW 25.3 mph 31.1 mph N/A   Clear
11:35 PM 24.8 °F 9.6 °F 3.2 °F 40% 30.26 in 10.0 mi NW 23.0 mph 32.2 mph N/A   Clear
11:55 PM 30.2 °F 17.8 °F 8.6 °F 40% 30.24 in 10.0 mi NW 19.6 mph 28.8 mph N/A   Clear